User: anonymous   Login
Location: Huntington Beach
(33.6600°N, 117.9980°W)
Time: 15:27:51
(UTC-07:00)
Language:

SL-16 R/B - Orbit

View from above orbital plane
View from above orbital plane
View from above satellite
View from above satellite

Ground track
Ground track

The orbit data is extracted from the following two-line orbital elements,

1 28353U 04021B   16270.45601638  .00000036  00000-0  43916-4 0  9993
2 28353  71.0002 271.5455 0007267 251.0619 108.9716 14.14188950634879
Epoch (UTC): 26 September 2016 10:56:39
Eccentricity: 0.0007267
inclination: 71.0002°
perigee height: 840 km
apogee height: 850 km
right ascension of ascending node: 271.5455°
argument of perigee: 251.0619°
revolutions per day: 14.14188950
mean anomaly at epoch: 108.9716°
orbit number at epoch: 63487

The dashed part of the orbit path shows where the satellite is in the earth's shadow,  

DLR